Weather History for San Antonio, TX

Change the Weather History Date:

Wednesday, August 1, 2012

  Actual Average Record
Temperature  
Mean Temperature 89 °F 86 °F  
Max Temperature 101 °F 96 °F 103 °F (2013)
Min Temperature 76 °F 75 °F 67 °F (1965)
Degree Days  
Heating Degree Days 0 0  
Month to date heating degree days 0 0  
Since 1 June heating degree days 0 0  
Since 1 July heating degree days 0 0  
Cooling Degree Days 24 21  
Month to date cooling degree days 24 21  
Year to date cooling degree days 2119 1781  
Since 1 June cooling degree days 1263 1152  
Growing Degree Days 38 (Base 50)    
Moisture  
Dew Point 67 °F    
Average Humidity 56    
Maximum Humidity 82    
Minimum Humidity 29    
Precipitation  
Precipitation 0.00 in 0.04 in 3.87 in (1978)
Month to date precipitation 0.00 0.04  
Year to date precipitation 26.64 18.89  
Snow  
Snow 0.00 in - - ()
Month to date snowfall 0.0  
Since 1 June snowfall 0.0  
Since 1 July snowfall 0.0  
Snow Depth 0.00 in    
Sea Level Pressure  
Sea Level Pressure 29.91 in    
Wind  
Wind Speed 8 mph (SSE)    
Max Wind Speed 16 mph    
Max Gust Speed -    
Visibility 10 miles    
Events      
T = Trace of Precipitation, MM = Missing Value Source: NWS Daily Summary

Daily Weather History Graph

Daily Weather History Graph

Search for Another Location

Airport:

Trip Planner

Search our weather history database for the weather conditions in past years. The results will help you decide how hot, cold, wet, or windy it might be!

Date:

Astronomy

Aug. 01, 2012 Rise Set
Actual Time 6:54 AM CDT 8:25 PM CDT
Civil Twilight 6:28 AM CDT 8:51 PM CDT
Nautical Twilight 5:57 AM CDT 9:22 PM CDT
Astronomical Twilight 5:25 AM CDT 9:54 PM CDT
Moon 8:02 PM CDT (8/1) 6:22 AM CDT (8/1)
Length of Visible Light 14h 23m
Length of Day
13h 31m
Full, 100% of the Moon is Illuminated
Aug 1
Full
Aug 1
Full
Aug 9
Last Quarter
Aug 17
New
Aug 24
First Quarter

Hourly Weather History & Observations

Time (CDT) Temp. Heat Index Dew Point Humidity Pressure Visibility Wind Dir Wind Speed Gust Speed Precip Events Conditions
12:53 AM 82.9 °F 85.4 °F 66.9 °F 58% 29.94 in 10.0 mi SSE 15.0 mph - N/A   Partly Cloudy
1:53 AM 80.1 °F 82.7 °F 68.0 °F 67% 29.94 in 10.0 mi SSE 8.1 mph - N/A   Partly Cloudy
2:53 AM 80.1 °F 83.2 °F 70.0 °F 71% 29.94 in 10.0 mi SSE 9.2 mph - N/A   Partly Cloudy
3:53 AM 78.1 °F - 70.0 °F 76% 29.94 in 10.0 mi SSE 5.8 mph - N/A   Partly Cloudy
4:53 AM 78.1 °F - 71.1 °F 79% 29.93 in 10.0 mi South 5.8 mph - N/A   Partly Cloudy
5:53 AM 77.0 °F - 71.1 °F 82% 29.94 in 10.0 mi SSW 6.9 mph - N/A   Partly Cloudy
6:53 AM 77.0 °F - 71.1 °F 82% 29.94 in 10.0 mi South 6.9 mph - N/A   Scattered Clouds
7:53 AM 78.1 °F - 71.1 °F 79% 29.95 in 10.0 mi South 5.8 mph - N/A   Mostly Cloudy
8:53 AM 80.1 °F 83.2 °F 70.0 °F 71% 29.96 in 10.0 mi South 6.9 mph - N/A   Mostly Cloudy
9:53 AM 82.9 °F 87.0 °F 70.0 °F 65% 29.96 in 10.0 mi South 9.2 mph - N/A   Mostly Cloudy
10:53 AM 84.9 °F 88.8 °F 69.1 °F 59% 29.96 in 10.0 mi SW 5.8 mph - N/A   Scattered Clouds
11:53 AM 90.0 °F 94.5 °F 69.1 °F 50% 29.94 in 10.0 mi SSE 5.8 mph - N/A   Scattered Clouds
12:53 PM 93.0 °F 96.4 °F 66.9 °F 42% 29.93 in 10.0 mi SE 6.9 mph - N/A   Scattered Clouds
1:53 PM 95.0 °F 97.9 °F 66.0 °F 38% 29.91 in 10.0 mi Variable 4.6 mph - N/A   Scattered Clouds
2:53 PM 98.1 °F 101.8 °F 66.0 °F 35% 29.89 in 10.0 mi SE 4.6 mph - N/A   Mostly Cloudy
3:53 PM 99.0 °F 102.3 °F 64.9 °F 33% 29.86 in 10.0 mi Variable 4.6 mph - N/A   Mostly Cloudy
4:53 PM 100.9 °F 102.7 °F 62.1 °F 28% 29.85 in 10.0 mi SSE 10.4 mph - N/A   Mostly Cloudy
5:53 PM 100.0 °F 101.8 °F 62.1 °F 29% 29.83 in 10.0 mi SE 5.8 mph - N/A   Scattered Clouds
6:53 PM 98.1 °F 98.6 °F 61.0 °F 29% 29.82 in 10.0 mi ESE 6.9 mph - N/A   Scattered Clouds
7:53 PM 95.0 °F 94.8 °F 60.1 °F 31% 29.83 in 10.0 mi SE 10.4 mph - N/A   Partly Cloudy
8:53 PM 91.9 °F 91.8 °F 61.0 °F 35% 29.84 in 10.0 mi ESE 13.8 mph - N/A   Partly Cloudy
9:53 PM 89.1 °F 91.0 °F 64.9 °F 45% 29.86 in 10.0 mi SE 16.1 mph - N/A   Partly Cloudy
10:53 PM 86.0 °F 87.6 °F 64.9 °F 49% 29.88 in 10.0 mi SSE 13.8 mph - N/A   Partly Cloudy
11:53 PM 84.2 °F 85.0 °F 62.6 °F 48% 29.94 in 10.0 mi SSE 10.4 mph - N/A   Partly Cloudy